Location: Stockholm
(59.3333°N, 18.0500°E)
Time: 12:20:06
(UTC+02:00)

ISS - Pass Details

Date: 20 May 2020
Orbit: 417 x 420 km, 51.6° (Epoch: 02 July)

Event Time Altitude Azimuth Distance (km) Brightness Sun altitude
Rises 22:57:19 0° 247° (WSW) 2,373 0.1 -7.5°
Reaches altitude 10° 22:59:41 10° 232° (SW) 1,509 -1.1 -7.6°
Maximum altitude 23:02:24 22° 179° (S) 966 -2.5 -7.7°
Drops below altitude 10° 23:05:07 10° 126° (SE) 1,511 -1.5 -7.9°
Enters shadow 23:06:05 - 118° (ESE) 1,848 -1.0 -7.9°
